Weather History for Garrison, ND

Change the Weather History Date:

Sunday, November 13, 2011

  Actual Average Record
Temperature  
Mean Temperature 39 °F -  
Max Temperature 49 °F 36 °F 62 °F (2001)
Min Temperature 28 °F 17 °F 0 °F (2000)
Degree Days  
Heating Degree Days 26    
Month to date heating degree days 375  
Moisture  
Dew Point 25 °F    
Average Humidity 64    
Maximum Humidity 92    
Minimum Humidity 36    
Precipitation  
Precipitation 0.00 in - - ()
Month to date precipitation 0.04  
Year to date precipitation 17.04  
Sea Level Pressure  
Sea Level Pressure 29.27 in    
Wind  
Wind Speed 11 mph (West)    
Max Wind Speed 22 mph    
Max Gust Speed 26 mph    
Averages and records for this station are not official NWS values.
T = Trace of Precipitation, MM = Missing Value Source: NWS Daily Summary

Daily Weather History Graph

Daily Weather History Graph

Search for Another Location

Airport:

Trip Planner

Search our weather history database for the weather conditions in past years. The results will help you decide how hot, cold, wet, or windy it might be!

Date:

Astronomy

Nov. 13, 2011 Rise Set
Actual Time 7:47 AM CST 5:11 PM CST
Civil Twilight 7:14 AM CST 5:45 PM CST
Nautical Twilight 6:37 AM CST 6:22 PM CST
Astronomical Twilight 6:00 AM CST 6:58 PM CST
Moon 7:14 PM CST (11/13) 10:30 AM CST (11/13)
Length of Visible Light 10h 30m
Length of Day
9h 23m
Waning Gibbous, 92% of the Moon is Illuminated
Nov 13
Waning Gibbous
Nov 18
Last Quarter
Nov 25
New
Dec 2
First Quarter
Dec 10
Full

Hourly Weather History & Observations

Time (CST) Temp. Windchill Dew Point Humidity Pressure Visibility Wind Dir Wind Speed Gust Speed Precip Events Conditions
12:52 AM 34.0 °F 25.5 °F 28.0 °F 79% 29.29 in - WNW 11.5 mph - N/A   Unknown
1:52 AM 33.1 °F 24.9 °F 28.0 °F 82% 29.27 in - NW 10.4 mph - N/A   Unknown
2:52 AM 32.0 °F 22.1 °F 27.0 °F 82% 29.27 in - WNW 13.8 mph - N/A   Unknown
3:52 AM 28.9 °F 21.1 °F 26.1 °F 89% 29.29 in - West 8.1 mph - N/A   Unknown
4:52 AM 30.9 °F 24.3 °F 27.0 °F 85% 29.29 in - West 6.9 mph - N/A   Unknown
5:52 AM 28.0 °F 24.2 °F 26.1 °F 92% 29.29 in - SSW 3.5 mph - N/A   Unknown
6:52 AM 30.0 °F - 27.0 °F 88% 29.28 in - Calm Calm - N/A   Unknown
7:52 AM 32.0 °F - 28.0 °F 85% 29.27 in - Calm Calm - N/A   Unknown
8:52 AM 35.1 °F 28.6 °F 30.9 °F 85% 29.28 in - WSW 8.1 mph - N/A   Unknown
9:52 AM 39.0 °F 30.6 °F 28.9 °F 67% 29.27 in - West 15.0 mph - N/A   Unknown
10:52 AM 41.0 °F 34.3 °F 28.0 °F 60% 29.26 in - West 11.5 mph - N/A   Unknown
11:52 AM 45.0 °F 37.9 °F 26.1 °F 48% 29.24 in - WSW 16.1 mph 20.7 mph N/A   Unknown
12:52 PM 46.0 °F 39.3 °F 23.0 °F 40% 29.23 in - West 16.1 mph - N/A   Unknown
1:52 PM 46.0 °F 38.3 °F 21.9 °F 39% 29.21 in - West 20.7 mph 25.3 mph N/A   Unknown
2:52 PM 48.0 °F - 23.0 °F 37% 29.21 in - West 17.3 mph 24.2 mph N/A   Unknown
3:52 PM 46.9 °F - 21.9 °F 37% 29.24 in - West 13.8 mph 19.6 mph N/A   Unknown
4:52 PM 43.0 °F 37.2 °F 21.0 °F 42% 29.25 in - West 10.4 mph - N/A   Unknown
5:52 PM 35.1 °F 29.3 °F 21.0 °F 57% 29.28 in - West 6.9 mph - N/A   Unknown
6:52 PM 39.0 °F 32.3 °F 23.0 °F 53% 29.28 in - West 10.4 mph - N/A   Unknown
7:52 PM 39.9 °F 33.9 °F 23.0 °F 51% 29.30 in - West 9.2 mph - N/A   Unknown
8:52 PM 32.0 °F 24.2 °F 21.9 °F 66% 29.31 in - West 9.2 mph - N/A   Unknown
9:52 PM 35.1 °F 27.4 °F 28.0 °F 76% 29.31 in - West 10.4 mph - N/A   Unknown
10:52 PM 30.9 °F 22.2 °F 26.1 °F 82% 29.33 in - West 10.4 mph - N/A   Unknown
11:52 PM 33.1 °F 23.0 °F 26.1 °F 75% 29.33 in - West 15.0 mph - N/A   Unknown